Regional Weather Roundup
Issued by NWS

Home | Current Version | Previous Version | Graphics & Text | Print | Product List | Glossary On
Versions: 1 2 3 4 5 6 7 8 9 10 11 12 13 14 15 16 17 18 19 20 21 22 23 24 25 26 27 28 29 30 31 32 33 34 35 36 37 38 39 40 41 42 43 44 45 46 47 48 49 50
906
ASUS43 KIND 272059
RWRIN

WEATHER ROUNDUP FOR INDIANA
NATIONAL WEATHER SERVICE INDIANAPOLIS IN
500 PM EDT MON MAR 27 2017

NOTE: "FAIR" INDICATES FEW OR NO CLOUDS BELOW 12,000 FEET WITH NO
SIGNIFICANT WEATHER AND/OR OBSTRUCTIONS TO VISIBILITY.

* - STATION DOES NOT REPORT WEATHER SUCH AS PRECIPITATION OR FOG.

+ - STATION NOT QUALITY CONTROLLED BY THE NATIONAL WEATHER SERVICE.
    USE DATA WITH CAUTION...ESPECIALLY DEWPOINT AND RELATIVE
    HUMIDITY OBSERVATIONS.

INZ001>003-010>013-019-020-272200-
NORTHWEST INDIANA

CITY           SKY/WX    TMP DP  RH WIND       PRES   REMARKS
GARY /AIRPORT/ CLOUDY    45  43  93 N7        29.92F FOG
MONTICELLO +   RAIN      60  52  75 E5        29.86S

$$

LMZ046-743>745-272200-
SOUTHERN LAKE MICHIGAN

STATION/POSITION TIME  TEMP    WIND        PRES    WAVE
                       AIR SEA DIR/SP/G            HT
                 (UTC) (F)     (DEG/KT/KT) (MB)    (FT)
BURNS HARBOR     2040   41      50/  7/  8 1013.5F
MICHIGAN CITY    2030   40      30/  8/  9   N/A

$$

INZ004-005-014>016-021>024-272200-
NORTH CENTRAL INDIANA

CITY           SKY/WX    TMP DP  RH WIND       PRES   REMARKS
ELKHART        CLOUDY    57  48  72 SW3       29.89F
GOSHEN         CLOUDY    58  48  69 CALM      29.88F
SOUTH BEND     CLOUDY    55  49  80 CALM      29.90F

$$

INZ006>009-017-018-025>027-272200-
NORTHEAST INDIANA

CITY           SKY/WX    TMP DP  RH WIND       PRES   REMARKS
ANGOLA *+      CLOUDY    57  48  72 CALM      29.89F
FORT WAYNE     CLOUDY    61  50  67 N5        29.87F
KENDALLVILLE + CLOUDY    58  50  73 W6        29.90S

$$

INZ028-029-035-036-043>045-051>053-272200-
WEST CENTRAL INDIANA

CITY           SKY/WX    TMP DP  RH WIND       PRES   REMARKS
CRAWFORDSVL +  DRIZZLE   54  54 100 E6        29.85F
GREENCASTLE +  CLOUDY    55  52  88 SE7       29.85F
LAFAYETTE      LGT RAIN  60  54  80 E7        29.84F
TERRE HAUTE    CLOUDY    59  53  80 E5        29.83S

$$

INZ030>032-037>040-046>048-054>057-064-065-272200-
CENTRAL INDIANA

CITY           SKY/WX    TMP DP  RH WIND       PRES   REMARKS
COLUMBUS       CLOUDY    64  55  72 SE6       29.85F
INDIANAPOLIS   CLOUDY    59  53  80 E8        29.84F
-EAGLE CREEK   CLOUDY    59  52  77 E7        29.84F
KOKOMO +       LGT RAIN  61  54  77 SE9       29.87F
SHELBYVILLE    CLOUDY    63  52  67 SE10      29.84F

$$

INZ033-034-041-042-049-050-058-059-272200-
EAST CENTRAL INDIANA

CITY           SKY/WX    TMP DP  RH WIND       PRES   REMARKS
MUNCIE         CLOUDY    62  52  69 SE7       29.86F
RICHMOND +     PTSUNNY   59  50  72 SE6       29.89F

$$

INZ060-061-067>069-081>083-085>088-272200-
SOUTHWEST INDIANA

CITY           SKY/WX    TMP DP  RH WIND       PRES   REMARKS
EVANSVILLE     RAIN      62  55  77 S8        29.80F
HUNTINGBURG *+ CLOUDY    68  56  65 S7        29.80F

$$

INZ062-063-066-070>080-084-089>092-272200-
SOUTH CENTRAL AND SOUTHEAST INDIANA

CITY           SKY/WX    TMP DP  RH WIND       PRES   REMARKS
BLOOMINGTON    PTSUNNY   64  53  67 S7        29.83F
MADISON *+     MOSUNNY   70  54  56 S5        29.86F
SEYMOUR +      MOSUNNY   68  55  64 S6        29.84F

$$





USA.gov is the U.S. government's official web portal to all federal, state and local government web resources and services.